ASTRA 2A (25462 NORAD) Tracking and Keplerian Element Data

This shows tracking and keplerian element data for the satellite.

Feedback or suggestion? Click here.




ElementValue
Catalog25462
NameASTRA 2A
Epoch Orbit4134
Epoch Day34.69495521
Epoch Year2025
RAAN74.7826
Inclination5.8329
Eccentricity0.0003525
Argument of Perigee230.9201
Mean Anonmoly135.7775
Mean Motion1.00269577
Decay Rate7E-07
L11 25462U 98050A 25034.69495521 .00000070 00000+0 00000+0 0 9991
L22 25462 5.8329 74.7826 0003525 230.9201 135.7775 1.00269577 41348



Live tracking and technical data element details for ASTRA 2A (NORAD 25462). ASTRA 2A can be tracked NOW for your location showing map with azimuth and elevation plus other details from your city location.







IsCatalogInMostPopularTable: catalog: 25462, numindb: 305
Update: records affected: 1



GetName: 25462 ASTRA 2A

Hit Count: updated at: Fri, 16 May 2025 10:45:18 GMT